User: anonymous   Login
Location: Unspecified
(0.0000°N, 0.0000°E)
Time: 23:41:30
(UTC+00:00)
Language:

CLOUDSAT - Orbit

View from above orbital plane
View from above orbital plane
View from above satellite
View from above satellite

Ground track
Ground track

The orbit data is extracted from the following two-line orbital elements,

1 29107U 06016A   15141.66457851  .00000439  00000-0  10735-3 0  9991
2 29107 098.1899 085.7091 0000923 102.2445 257.8847 14.57145696482123
Epoch (UTC): 21 May 2015 15:56:59
Eccentricity: 0.0000923
inclination: 98.1899°
perigee height: 702 km
apogee height: 703 km
right ascension of ascending node: 85.7091°
argument of perigee: 102.2445°
revolutions per day: 14.57145696
mean anomaly at epoch: 257.8847°
orbit number at epoch: 48212

The dashed part of the orbit path shows where the satellite is in the earth's shadow,  

DLR